Terug naar catalogus

TITAN 3C TRANSTAGE DEB

ActiefHEO
NORAD 5998·DEBRIS·🇺🇸 United States

Gelanceerd Dec 21, 1965 vanaf Cape Canaveral Space Force Station

Loading…

Volgende Passages (komende 24 uur)

TLE

VersSource: Space-Track

Epoch: Sep 13, 2026, 06:14 UTC

1  5998U 65108T   26256.26006639  .00002007  00000-0  94946-2 0  9997
2  5998  26.5786 349.6910 6579503 180.9255 216.4942  3.03873286151403

Volg TITAN 3C TRANSTAGE DEB in realtime met AllMySat

Download on the App Store